Location: Tucson
(32.2217°N, 110.9265°W)
Time: 01:02:35
(UTC-07:00)

Transit 2A Rocket - All Passes

Search period start: 21 October 2021 00:00
Search period end: 31 October 2021 00:00
Orbit: 584 x 918 km, 66.7° (Epoch: 20 October)

Date Brightness Start Highest point End Pass type
(mag) Time Alt. Az. Time Alt. Az. Time Alt. Az.
21 Oct - 02:16:49 10° NNE 02:19:25 13° NE 02:22:00 10° ENE visible
21 Oct - 03:56:48 10° NNW 04:02:58 82° ENE 04:08:53 10° SSE visible
21 Oct - 05:42:41 10° W 05:44:45 12° W 05:46:48 10° WSW visible
21 Oct - 16:46:33 10° SE 16:49:21 15° ESE 16:52:18 10° ENE daylight
21 Oct - 18:26:26 10° SW 18:31:17 51° WNW 18:36:40 10° NNE visible
22 Oct - 03:14:19 10° NNW 03:20:14 48° ENE 03:25:56 10° SE visible
22 Oct - 04:57:53 10° NW 05:02:28 23° WSW 05:06:54 10° SSW visible
22 Oct - 17:43:38 10° SSW 17:48:35 86° ESE 17:54:07 10° NNE daylight
22 Oct - 19:29:58 10° WNW 19:32:03 12° NW 19:34:11 10° NNW visible
23 Oct - 02:32:07 10° N 02:37:22 29° NE 02:42:27 10° ESE night (unlit)
23 Oct - 04:14:25 10° NW 04:20:04 40° WSW 04:25:29 10° S visible
23 Oct - 17:01:23 10° S 17:06:04 44° ESE 17:11:14 10° NE daylight
23 Oct - 18:45:04 10° W 18:48:56 21° NW 18:53:03 10° N visible
24 Oct - 01:50:21 10° N 01:54:20 18° NE 01:58:15 10° E night (unlit)
24 Oct - 03:31:27 10° NNW 03:37:33 71° WSW 03:43:23 10° SSE visible
24 Oct - 16:19:47 10° SSE 16:23:41 23° ESE 16:27:53 10° NE daylight
24 Oct - 18:01:19 10° WSW 18:05:58 35° WNW 18:11:04 10° N visible
25 Oct - 01:10:08 10° NE 01:11:08 10° NE 01:12:09 10° NE night (unlit)
25 Oct - 02:48:47 10° NNW 02:54:54 67° ENE 03:00:45 10° SE night (unlit)
25 Oct - 04:33:33 10° WNW 04:36:50 15° WSW 04:40:03 10° SW night (unlit)
25 Oct - 15:39:38 10° ESE 15:41:24 12° E 15:43:14 10° E daylight
25 Oct - 17:18:11 10° SW 17:23:10 65° WNW 17:28:42 10° NNE daylight
26 Oct - 02:06:24 10° N 02:12:06 39° ENE 02:17:37 10° SE night (unlit)
26 Oct - 03:49:28 10° NW 03:54:30 28° WSW 03:59:22 10° SSW night (unlit)
26 Oct - 16:35:35 10° SSW 16:40:32 68° ESE 16:46:02 10° NNE daylight
26 Oct - 18:20:47 10° W 18:23:46 15° NW 18:26:54 10° NNW visible
27 Oct - 01:24:19 10° N 01:29:10 24° NE 01:33:54 10° ESE night (unlit)
27 Oct - 03:06:13 10° NW 03:12:04 49° WSW 03:17:39 10° S night (unlit)
27 Oct - 15:53:32 10° S 15:58:03 35° ESE 16:03:01 10° NE daylight
27 Oct - 17:36:27 10° WSW 17:40:42 25° NW 17:45:18 10° N daylight
28 Oct - 00:42:48 10° NNE 00:46:05 15° NE 00:49:19 10° E night (unlit)
28 Oct - 02:23:21 10° NNW 02:29:30 86° WSW 02:35:21 10° SSE night (unlit)
28 Oct - 15:12:15 10° SSE 15:15:43 19° ESE 15:19:23 10° ENE daylight
28 Oct - 16:52:57 10° SW 16:57:48 44° WNW 17:03:09 10° NNE daylight
29 Oct - 01:40:47 10° NNW 01:46:48 55° ENE 01:52:33 10° SE night (unlit)
29 Oct - 03:24:49 10° WNW 03:28:53 19° WSW 03:32:50 10° SSW night (unlit)
29 Oct - 16:10:01 10° SSW 16:15:03 81° WNW 16:20:41 10° NNE daylight
29 Oct - 17:57:31 10° WNW 17:58:41 11° NW 17:59:52 10° NNW visible
30 Oct - 00:58:30 10° N 01:03:57 33° ENE 01:09:13 10° ESE night (unlit)
30 Oct - 02:41:08 10° NW 02:46:32 34° WSW 02:51:41 10° S night (unlit)
30 Oct - 15:27:35 10° S 15:32:29 54° ESE 15:37:54 10° NE daylight
30 Oct - 17:11:54 10° W 17:15:31 18° NW 17:19:21 10° N daylight
